Погода в Анисимове

Россия / Вологодская область     59°10′24″N   35°07′51″E
темп.,
°C
ветер,
м/с
пор.,
м/с
влажн.,
%
обл.,
%
осадки,
мм/ч
давл.,
гПа
погр.,
м
16 апреля, пт
пт1600:00+3св4137640 0.0 1028497
03:00+1св4128094 0.0 1028405
06:00+1всв4137879 0.0 1029418
09:00+5всв5115653 0.0 1029603
12:00+9всв594078 0.0 1029950
15:00+12всв583535 0.0 10281189
18:00+10всв594357 0.0 10281051
21:00+6всв4126054 0.0 1029462
17 апреля, сб
сб1700:00+4всв4137132 0.0 1030436
03:00+2всв312805 0.0 1030327
06:00+2всв312835 0.0 1030326
09:00+7всв510565 0.0 1031593
12:00+11в57395 0.0 10301068
15:00+13всв56355 0.0 10291305
18:00+12всв46441 0.0 10291163
21:00+6св411653 0.0 1030327
18 апреля, вс
вс1800:00+4св311750 0.0 1030293
03:00+2св39860 0.0 1030214
06:00+2всв310876 0.0 1030266
09:00+7всв4962100 0.0 1030601
12:00+11в5847100 0.0 10291433
15:00+11в5844100 0.0 10291506
18:00+10всв4854100 0.0 10291391
21:00+7всв4106676 0.0 1030540
19 апреля, пн
пн1900:00+6всв4107798 0.0 1031493
03:00+3всв398872 0.0 1031371
06:00+2всв39927 0.0 1031345
09:00+6в47665 0.0 1031694
12:00+10в574815 0.0 10301363
15:00+11в564122 0.0 10291638
18:00+10вюв464778 0.0 10291685
21:00+5в29687 0.0 1029226
20 апреля, вт
вт2000:00+4в312675 0.0 1028372
03:00+2в412735 0.0 1027382
06:00+1в412745 0.0 1026399
09:00+5вюв611505 0.0 1024760
12:00+9вюв6947100 0.0 10221273
15:00+11в61142100 0.0 10191374
18:00+9в71453100 0.0 10161332
21:00+8в71758100 0.0 10131290